BTN774 VIDP-VQPR

Flight info

Callsign BTN774
Flight time N/A
Altitude 37000
Route ALI DCT KTM B345 TUMLI G348 SUBSU SUBSU1
Aircraft A319/M-SDE3FGHIRWY/LB1

Departure

Time 2026-04-28 01:04
Airport Indira Gandhi International Airport (VIDP)

Arrival

Time N/A
Airport Paro International Airport (VQPR)
Time Latitude Longitude Altitude Speed Heading
2026-04-28 00:34 28.55205 77.08722 749 ft 0 kts 14°
2026-04-28 00:49 28.55194 77.08718 748 ft 4 kts 19°
2026-04-28 00:49 28.55182 77.08714 751 ft 3 kts 16°
2026-04-28 00:50 28.55156 77.08706 747 ft 4 kts 12°
2026-04-28 00:50 28.55120 77.08701 748 ft 4 kts 354°
2026-04-28 00:50 28.55099 77.08708 750 ft 1 kts 322°
2026-04-28 00:50 28.55095 77.08711 750 ft 1 kts 322°
2026-04-28 00:52 28.55100 77.08707 749 ft 2 kts 322°
2026-04-28 00:53 28.55112 77.08694 749 ft 3 kts 311°
2026-04-28 00:53 28.55123 77.08666 748 ft 5 kts 282°
2026-04-28 00:53 28.55114 77.08629 749 ft 5 kts 240°
2026-04-28 00:53 28.55089 77.08598 751 ft 5 kts 212°
2026-04-28 00:54 28.55054 77.08594 749 ft 6 kts 172°
2026-04-28 00:54 28.54996 77.08664 749 ft 17 kts 109°
2026-04-28 00:54 28.54956 77.08781 754 ft 14 kts 133°
2026-04-28 00:54 28.54865 77.08782 750 ft 13 kts 185°
2026-04-28 00:55 28.54792 77.08827 752 ft 12 kts 116°
2026-04-28 00:55 28.54766 77.08924 754 ft 13 kts 105°
2026-04-28 00:55 28.54735 77.09060 758 ft 23 kts 103°
2026-04-28 00:55 28.54699 77.09239 761 ft 23 kts 104°
2026-04-28 00:56 28.54658 77.09411 763 ft 22 kts 105°
2026-04-28 00:56 28.54621 77.09572 765 ft 20 kts 104°
2026-04-28 00:56 28.54583 77.09734 767 ft 24 kts 104°
2026-04-28 00:56 28.54541 77.09917 770 ft 24 kts 104°
2026-04-28 00:57 28.54499 77.10101 773 ft 24 kts 104°
2026-04-28 00:57 28.54458 77.10278 775 ft 22 kts 104°
2026-04-28 00:57 28.54420 77.10442 778 ft 21 kts 104°
2026-04-28 00:57 28.54385 77.10598 780 ft 20 kts 104°
2026-04-28 00:58 28.54351 77.10745 781 ft 19 kts 104°
2026-04-28 00:58 28.54320 77.10883 783 ft 18 kts 104°
2026-04-28 00:58 28.54297 77.11026 784 ft 18 kts 86°
2026-04-28 00:58 28.54383 77.11112 785 ft 18 kts 15°
2026-04-28 00:59 28.54518 77.11152 785 ft 21 kts 14°
2026-04-28 00:59 28.54662 77.11192 784 ft 21 kts 14°
2026-04-28 00:59 28.54810 77.11233 784 ft 23 kts 14°
2026-04-28 00:59 28.54972 77.11279 785 ft 2 kts 18°
2026-04-28 01:00 28.55393 77.11438 780 ft 242 kts 23°
2026-04-28 01:00 28.55346 77.11401 780 ft 3 kts 20°
2026-04-28 01:00 28.55392 77.11416 780 ft 9 kts 15°
2026-04-28 01:00 28.55463 77.11439 779 ft 15 kts 15°
2026-04-28 01:01 28.55600 77.11472 778 ft 25 kts 12°
2026-04-28 01:01 28.55721 77.11563 778 ft 17 kts 75°
2026-04-28 01:01 28.55741 77.11680 780 ft 14 kts 57°
2026-04-28 01:01 28.55772 77.11768 781 ft 11 kts 89°
2026-04-28 01:02 28.55751 77.11869 783 ft 19 kts 105°
2026-04-28 01:02 28.55714 77.12034 785 ft 22 kts 104°
2026-04-28 01:02 28.55718 77.12191 787 ft 19 kts 51°
2026-04-28 01:02 28.55838 77.12220 789 ft 18 kts 338°
2026-04-28 01:03 28.55883 77.12129 788 ft 14 kts 285°
2026-04-28 01:03 28.55927 77.11936 783 ft 53 kts 284°
2026-04-28 01:03 28.56074 77.11289 770 ft 113 kts 284°
2026-04-28 01:03 28.56317 77.10233 757 ft 161 kts 284°
2026-04-28 01:04 28.56619 77.08953 1171 ft 166 kts 286°
2026-04-28 01:04 28.56926 77.07706 1789 ft 163 kts 287°
2026-04-28 01:04 28.57235 77.06459 2228 ft 171 kts 287°
2026-04-28 01:04 28.57549 77.05052 2389 ft 195 kts 286°
2026-04-28 01:05 28.57879 77.03482 2602 ft 213 kts 286°
2026-04-28 01:05 28.58265 77.01781 2750 ft 238 kts 287°
2026-04-28 01:05 28.58712 76.99851 3064 ft 258 kts 287°
2026-04-28 01:05 28.59172 76.97852 3700 ft 264 kts 286°
2026-04-28 01:06 28.59635 76.95817 4441 ft 267 kts 286°
2026-04-28 01:06 28.60095 76.93790 5236 ft 269 kts 286°
2026-04-28 01:06 28.60571 76.91687 6007 ft 272 kts 286°
2026-04-28 01:06 28.61018 76.89619 6708 ft 275 kts 281°
2026-04-28 01:07 28.60959 76.87439 7361 ft 281 kts 257°